User: anonymous   Login
Location: Newark
(40.4667°N, 5.6000°W)
Time: 23:49:09
(UTC+00:00)
Language:

Courier 1B - Orbit

View from above orbital plane
View from above orbital plane
View from above satellite
View from above satellite

Ground track
Ground track

The orbit data is extracted from the following two-line orbital elements,

1    58U 60013A   19321.54161905  .00000062  00000-0 -33109-4 0  9999
2    58  28.3267  94.7799 0164873 106.5339 255.3385 13.46319382910432
Epoch (UTC): 17 November 2019 12:59:55
Eccentricity: 0.0164873
inclination: 28.3267°
perigee height: 963 km
apogee height: 1209 km
right ascension of ascending node: 94.7799°
argument of perigee: 106.5339°
revolutions per day: 13.46319382
mean anomaly at epoch: 255.3385°
orbit number at epoch: 91043

The dashed part of the orbit path shows where the satellite is in the earth's shadow,  

DLR